Hlavní strana
METAR-TAF:

METAR-TAF

Letiště :

Blytheville Municipal Airport

Blytheville, Arkansas, Spojené státy americké

zeměpisná šířka: 35-56-20N, zeměpisná délka: 089-49-57W, výška: 78 m

Aktuální stav počasí

Zpráva byla vytvořena před 34 minutami, v 14:53 UTC
Bezvětří
Teplota 14°C
Vlhkost vzduchu 58%
Tlak 1024 hPa
Viditelnost: 16.1 km
Jasno

METAR: KHKA 301453Z AUTO 00000KT 10SM CLR 14/06 A3025 RMK AO2 SLP241 T01440061 53010 $

Čas: 10:27 (15:27 UTC)


TAF: chybějící

Stav a předpovědi počasí z více než 4 000 letišť (zprávy METAR a TAF).

Červené a žluté tečky na mapě představují dostupné meteorologické stanice.

Když kurzor umístíte na tečku, zobrazí se název stanice.

Pak kliknutím zobrazíte stav a předpověď počasí.

Chcete-li změnit mapu, kliknutím na zelené tlačítko se znaménkem +mapu přiblížíte, kliknutím na zelené tlačítko se znaménkem – mapu oddálíte a kliknutím na zelené šipky přejdete na sousední mapy.


METAR-TAF: